Terminal Aerodrome Forecast
Issued by NWS

Home | Current Version | Previous Version | Graphics & Text | Print | Product List | Glossary Off
Versions: 1 2 3 4 5 6 7 8 9 10 11 12 13 14 15 16 17 18 19

000
FTUS43 KDDC 222320
TAFHYS
TAF
KHYS 222320Z 2300/2324 36024G37KT P6SM VCTS BKN100CB
      TEMPO 2300/2303 TSRA
     FM230300 04010G20KT P6SM VCSH OVC150
     FM231200 01009KT P6SM SKC
     FM231800 05009KT P6SM SCT080=

USA.gov is the U.S. government's official web portal to all federal, state and local government web resources and services.